007  
AXUS43 KGID 061203  
MISGRI  
 
GID CWA HOURLY WEATHER ROUNDUP  
NATIONAL WEATHER SERVICE HASTINGS NE  
700 AM CDT WED JUL 06 2022  
 
NOTE: "FAIR" INDICATES FEW OR NO CLOUDS BELOW 12,000 FEET WITH NO  
SIGNIFICANT WEATHER AND/OR OBSTRUCTIONS TO VISIBILITY.  
   
..SOUTH CENTRAL NEBRASKA
 
 
 
CITY SKY/WX TMP DP RH WIND PRES REMARKS  
GRAND ISLAND NOT AVBL  
KEARNEY MOCLDY 68 67 96 E3 29.96S  
HASTINGS NOT AVBL  
ORD MOCLDY 68 67 96 SE6 29.94R  
YORK MIX PCPN 70 70 100 NE8 29.93F FOG  
AURORA CLOUDY 69 68 95 NE8 29.93F FOG  
LEXINGTON PTCLDY 68 67 96 SE7 29.96F  
HOLDREGE PTCLDY 68 66 95 E10 29.94S  
HEBRON CLOUDY 70 67 91 CALM 29.95S  
   
..NEBRASKA PANHANDLE
 
 
 
CITY SKY/WX TMP DP RH WIND PRES REMARKS  
CHADRON MOCLDY 60 58 92 CALM 30.06F  
ALLIANCE CLOUDY 63 57 81 N5 30.09S  
SCOTTSBLUFF LGT RAIN 67 62 84 E3 30.10R  
SIDNEY LGT RAIN 65 63 93 S8 30.09R  
   
..WESTERN AND NORTH CENTRAL NEBRASKA
 
 
 
CITY SKY/WX TMP DP RH WIND PRES REMARKS  
VALENTINE PTCLDY 64 62 93 NW3 30.02R  
AINSWORTH PTCLDY 65 63 93 N3 30.01S  
ONEILL MOCLDY 69 66 92 N9 29.98F  
BROKEN BOW MOCLDY 67 64 90 SE3 29.97R  
IMPERIAL CLOUDY 68 68 100 E7 30.01R  
NORTH PLATTE MOCLDY 66 63 90 CALM 29.98R  
MCCOOK CLOUDY 69 66 90 E8 29.96R  
   
..EASTERN NEBRASKA
 
 
 
CITY SKY/WX TMP DP RH WIND PRES REMARKS  
NORFOLK CLOUDY 71 68 90 SE6 29.94S FOG  
SO SIOUX CITY CLOUDY 69 67 93 CALM 29.96S  
TEKAMAH LGT RAIN 71 69 93 E9 29.95F  
COLUMBUS CLOUDY 70 70 100 MISG 29.95F FOG  
ALBION CLOUDY 70 69 98 E5 29.92F FOG  
OMAHA EPPLEY LGT RAIN 71 70 96 N8 29.97F  
OFFUTT AFB LGT RAIN 72 69 90 NE10 29.96F  
MILLARD LGT RAIN 71 69 92 NE7 29.95F  
LINCOLN LGT RAIN 73 70 90 W3 29.96R  
NEBRASKA CITY RAIN 73 71 93 NE9 29.95S  
BEATRICE LGT RAIN 72 71 96 CALM 29.95R  
FALLS CITY CLOUDY 75 71 87 NW7 29.95R  
   
..NORTHERN KANSAS
 
 
 
CITY SKY/WX TMP DP RH WIND PRES REMARKS  
GOODLAND PTCLDY 65 62 90 NE12 30.00R  
HILL CITY PTCLDY 69 66 90 E13 29.95S  
NORTON FAIR 68 63 83 E15 29.96F  
PHILLIPSBURG CLEAR 69 64 84 NE9 29.94F  
SMITH CENTER CLOUDY 68 63 83 E14 29.93F  
HAYS MOCLDY 71 68 90 E14 29.89R  
RUSSELL CLOUDY 72 69 90 NE10 29.88R  
CONCORDIA TSTM 71 68 90 CALM 29.95R  
SALINA MOCLDY 72 68 87 NE8 29.93F  
TOPEKA MOCLDY 78 74 87 CALM 29.91R  
 
CLICK HERE TO GO TO PREVIOUS BULLETINS.

The Nexlab NE Page
The Nexlab KS Page Main Text Page